Wind_Speed
20 17 13 8 6 8 8 7 2 5 6 8 8 7 7 9 11 11 10 8 11 13 11 12 12 12 11 12 14 14 13 14 15 17 18 19 20 23 25 26 28 27 29 28
28 24 20 14 11 8 8 9 8 4 2 2 3 2 4 9 8 8 8 8 11 11 12 12 14 15 15 14 14 15 18 17 18 20 21 22 24 25 28 30 31 32 34 35
35 30 27 23 19 14 11 8 8 11 8 6 4 5 6 6 5 5 4 4 5 7 9 11 11 13 13 14 15 16 17 19 20 22 23 26 28 28 30 32 33 35 37 40
42 34 32 29 25 21 17 13 11 11 10 8 10 6 6 5 4 10 7 5 6 9 12 13 15 14 15 15 17 20 23 23 25 26 26 26 27 29 33 36 38 39 39 40
46 42 39 35 30 26 24 20 16 15 15 11 8 13 11 7 9 11 12 11 13 13 16 15 19 18 18 19 20 21 23 24 26 28 30 31 32 36 37 39 42 44 47 49
48 46 42 41 35 32 32 26 24 19 18 20 13 14 12 13 13 14 15 14 17 15 18 19 22 22 22 23 23 23 26 28 29 30 31 33 34 37 39 40 42 45 48 50
49 44 44 46 43 40 36 33 32 26 25 24 19 18 18 15 16 16 17 18 20 22 23 20 23 26 26 27 28 28 29 33 33 36 37 36 36 38 39 41 45 50 54 57
55 50 46 48 47 47 45 42 35 33 32 29 23 23 24 20 22 21 24 25 24 24 25 27 27 30 32 33 33 33 34 37 38 39 40 41 43 43 43 44 49 53 56 59
56 51 52 52 51 49 48 43 43 41 37 33 33 30 27 26 28 30 29 32 32 35 35 38 38 37 38 38 35 38 40 40 40 41 43 44 46 44 47 49 53 58 60 62
63 61 62 59 58 53 49 48 45 43 42 40 39 34 33 32 33 35 39 36 31 36 40 43 44 43 43 42 42 42 44 45 45 44 44 48 46 48 51 54 57 60 62 64
69 66 65 66 58 56 54 51 49 51 46 43 44 41 39 37 40 39 41 40 37 38 42 43 45 46 47 48 49 49 48 48 48 48 49 50 53 54 56 58 58 63 65 67
74 72 72 63 63 61 61 58 53 53 49 47 47 46 44 43 44 42 42 44 46 43 43 46 46 47 50 52 54 52 52 52 52 51 53 54 55 59 64 61 62 64 66 68
79 74 76 72 68 65 64 60 57 56 54 51 54 49 51 47 47 46 47 48 49 49 47 47 49 49 50 52 55 56 56 56 56 55 54 55 60 65 64 61 66 65 69 69
85 77 78 75 70 70 71 68 63 63 60 63 59 56 52 51 49 49 51 49 50 48 47 49 53 53 52 54 56 55 56 58 59 58 59 60 59 62 55 73 74 68 73 70
80 76 77 75 76 77 74 72 71 67 64 67 67 62 56 55 54 51 50 49 53 54 53 55 57 56 55 56 58 59 59 58 58 60 55 56 58 63 74 72 72 74 73 74
78 76 74 73 75 77 74 71 71 71 72 70 70 64 62 60 61 59 54 49 57 58 56 56 59 59 57 59 59 60 60 61 60 60 64 59 64 72 73 72 76 76 72 78
78 74 75 74 73 73 72 68 71 72 71 73 69 65 68 65 67 63 60 60 62 62 60 61 64 61 60 62 63 64 64 63 61 63 64 61 70 72 75 74 73 72 79 81
78 76 76 75 73 74 70 67 68 69 69 70 70 71 71 71 70 68 67 68 68 67 67 69 72 67 63 63 65 65 67 65 63 64 67 72 75 74 73 74 71 80 86 90
83 79 80 79 74 72 73 72 74 77 76 72 69 66 66 67 71 71 70 71 71 72 73 74 74 72 71 71 68 66 67 65 64 66 66 69 74 77 78 75 79 83 84 86
88 89 84 85 83 78 72 76 78 79 81 78 75 71 70 70 72 72 74 76 74 75 78 80 81 80 77 73 72 69 68 67 68 68 71 72 75 69 70 74 74 72 72 62
89 91 88 86 82 79 79 80 80 79 82 79 78 80 77 78 78 78 77 74 75 74 76 79 78 82 75 76 77 75 70 70 69 68 65 70 74 79 73 79 74 70 54 49
87 85 87 87 88 87 82 82 82 81 81 83 81 79 79 77 81 80 77 80 76 70 70 73 73 69 77 80 78 75 67 63 64 58 61 69 61 67 68 72 60 54 52 61
79 80 85 86 85 83 82 83 84 85 84 84 82 82 83 77 82 83 80 80 71 73 76 71 74 76 78 73 70 69 66 66 63 59 53 63 58 39 4 51 70 81 80 94
70 76 78 77 77 79 81 83 84 84 81 81 77 74 76 78 75 75 73 74 77 81 77 79 81 75 65 59 62 63 61 62 63 66 54 60 58 37 54 79 81 86 97 109
72 70 67 72 68 57 63 65 75 74 77 75 62 56 56 65 73 73 72 77 78 77 70 75 71 67 70 68 67 67 66 67 68 71 74 79 77 76 73 87 93 97 105 112
73 68 61 66 68 70 73 71 67 59 65 64 66 74 79 79 76 74 76 79 79 84 80 72 73 77 68 65 60 64 69 72 65 64 70 74 81 81 87 87 89 97 98 100
Wind_Direction
263 265 274 286 307 328 334 326 3 72 74 80 86 76 74 86 79 75 77 76 56 54 41 26 32 29 27 15 11 15 15 13 9 2 1 0 356 354 356 358 0 355 354 352
261 261 269 269 272 279 299 311 306 294 343 353 57 97 148 81 79 77 79 66 64 52 40 38 26 27 25 19 14 12 15 10 2 358 357 357 356 353 352 350 353 352 351 353
254 257 263 265 264 256 259 270 282 293 290 287 301 329 341 191 67 114 109 70 52 34 14 5 8 5 7 8 6 3 5 5 0 355 352 352 351 350 351 347 347 346 346 348
252 253 258 259 260 254 251 246 271 279 271 281 289 284 291 283 283 234 276 304 327 349 346 344 341 342 341 344 347 350 348 349 345 344 341 338 340 345 347 345 346 346 343 344
247 247 252 253 255 254 252 245 236 247 271 271 261 275 269 268 280 290 286 309 312 285 313 321 321 324 330 333 338 338 333 330 330 331 331 329 336 341 343 343 342 342 342 344
245 248 250 256 254 252 252 250 248 239 247 253 262 276 268 278 278 277 289 301 295 296 297 310 312 316 322 323 324 325 322 320 321 321 321 327 326 332 333 336 337 338 339 340
249 249 247 251 253 255 257 252 251 246 244 245 242 258 266 268 270 282 288 282 283 292 294 301 303 308 313 312 316 319 318 315 318 317 318 320 320 323 328 327 333 335 336 339
241 243 244 247 248 249 250 252 253 252 249 247 245 253 256 270 279 284 283 284 287 293 300 301 298 300 302 307 312 313 314 314 315 316 315 316 316 319 322 325 328 329 333 335
243 242 244 244 246 249 250 253 253 254 257 256 253 252 260 264 269 273 276 282 289 296 298 295 292 294 297 301 307 309 310 311 314 316 314 312 312 317 318 321 323 325 328 331
239 239 241 242 243 245 249 251 254 255 254 254 258 256 254 257 262 267 273 274 281 288 290 291 296 299 301 303 306 305 307 311 312 314 314 312 312 315 316 318 319 322 323 326
239 240 242 244 248 250 252 253 253 253 254 253 254 257 255 256 261 263 268 273 274 275 282 288 293 297 298 300 302 303 305 305 306 309 313 309 313 313 314 316 316 318 319 325
240 240 243 245 244 246 247 249 252 259 259 258 257 255 254 254 254 260 266 273 274 274 277 283 288 292 295 297 297 300 302 302 305 308 311 307 308 308 311 314 314 317 317 323
237 240 242 242 244 247 253 254 255 257 260 261 259 257 258 257 258 258 260 265 272 275 277 281 287 289 291 293 295 297 300 303 304 307 305 303 303 305 304 311 316 316 317 316
239 237 241 244 245 246 249 251 252 255 257 258 259 260 262 264 264 263 265 269 272 279 282 281 280 282 287 291 292 296 298 300 303 306 304 304 304 303 300 308 313 313 313 314
236 238 242 243 245 246 249 253 255 257 257 260 264 264 266 268 269 268 268 270 273 273 273 276 281 285 287 291 293 295 298 301 303 303 303 300 298 303 305 307 309 310 308 312
236 237 238 242 246 248 249 251 256 258 259 261 263 268 267 266 266 268 269 270 270 272 276 277 278 281 286 289 290 293 297 297 300 303 304 299 297 304 305 306 307 308 308 311
233 236 239 240 241 245 247 248 253 255 256 258 262 263 264 266 268 270 272 272 270 273 275 277 277 281 283 284 289 293 294 298 301 300 299 297 300 302 302 303 307 305 306 307
234 237 240 243 245 249 254 254 255 256 258 260 260 260 263 266 269 270 270 272 275 276 275 275 278 279 281 286 287 290 292 295 300 299 298 297 298 299 300 303 301 303 303 303
233 238 241 243 246 248 252 255 258 259 259 258 261 267 267 266 267 269 269 267 268 270 274 276 279 281 280 281 284 286 291 295 295 294 292 296 295 298 301 303 303 302 300 299
235 237 237 243 244 245 251 255 257 259 262 264 266 263 263 265 265 268 269 271 272 272 272 274 276 278 282 285 286 287 288 292 291 292 295 295 297 300 302 305 299 302 298 302
235 236 238 239 243 247 249 253 257 259 262 263 262 264 267 269 270 270 269 271 274 276 280 280 281 281 281 285 286 289 292 292 297 297 296 295 299 298 297 301 291 295 294 289
234 236 239 240 243 243 246 249 253 256 261 264 266 269 270 271 271 274 277 275 276 278 279 278 278 283 289 291 291 293 297 303 304 298 294 298 297 306 309 294 290 285 281 292
233 238 244 244 245 246 246 250 252 254 257 258 263 266 268 267 270 274 275 277 280 276 274 275 283 286 288 290 293 296 298 296 293 297 294 297 289 318 275 266 283 298 298 302
232 233 238 245 247 250 251 252 252 253 256 260 260 266 269 269 271 272 273 275 274 278 277 279 281 285 285 285 288 288 287 283 281 288 282 279 285 268 248 268 282 284 293 294
230 237 239 242 240 237 242 250 257 259 257 258 254 245 250 252 260 269 270 271 274 277 285 284 285 283 288 288 290 285 282 280 284 279 277 275 281 284 277 272 283 284 289 287
234 234 234 242 239 239 244 247 249 245 249 247 245 251 256 262 265 269 270 269 266 268 272 273 280 289 289 286 278 276 282 278 281 276 277 279 283 281 284 283 281 281 285 288
Height
11000 11000 10999 11000 10999 10999 11000 10999 11000 11000 10998 10996 10994 10994 10994 10992 10992 10991 10990 10989 10988 10988 10988 10987 10984 10983 10982 10981 10979 10977 10975 10972 10970 10968 10966 10964 10961 10958 10954 10951 10947 10942 10938 10934
10994 10995 10995 10997 10997 10998 10999 10998 10997 10998 10998 10997 10996 10994 10995 10994 10992 10991 10990 10990 10988 10989 10988 10988 10986 10983 10980 10980 10979 10977 10974 10971 10969 10966 10964 10961 10959 10956 10952 10947 10942 10939 10934 10930
10985 10988 10991 10992 10994 10995 10996 10997 10997 10995 10995 10996 10995 10994 10991 10993 10993 10991 10990 10989 10986 10987 10987 10986 10984 10983 10981 10979 10977 10975 10974 10971 10968 10965 10962 10958 10956 10953 10949 10945 10940 10936 10930 10925
10975 10982 10984 10985 10987 10989 10991 10992 10993 10993 10994 10994 10993 10993 10992 10991 10991 10991 10990 10989 10987 10984 10982 10982 10983 10982 10980 10978 10975 10971 10969 10967 10965 10962 10959 10957 10955 10951 10945 10940 10935 10930 10926 10920
10966 10971 10974 10978 10979 10983 10983 10986 10989 10991 10990 10990 10991 10990 10991 10990 10988 10987 10986 10985 10984 10982 10981 10979 10978 10979 10977 10975 10972 10969 10968 10967 10964 10960 10957 10953 10947 10943 10939 10934 10929 10923 10917 10911
10957 10961 10966 10967 10972 10974 10975 10978 10980 10984 10986 10985 10987 10985 10986 10987 10987 10983 10980 10980 10979 10979 10979 10976 10974 10974 10973 10971 10970 10968 10966 10963 10961 10957 10954 10948 10942 10938 10935 10930 10925 10920 10914 10908
10947 10953 10957 10956 10960 10962 10965 10969 10970 10974 10978 10979 10982 10983 10982 10983 10982 10980 10978 10978 10975 10975 10975 10974 10972 10969 10970 10968 10965 10964 10963 10959 10956 10952 10947 10943 10940 10935 10931 10925 10918 10910 10903 10895
10933 10941 10945 10948 10950 10951 10953 10956 10963 10964 10967 10969 10973 10976 10976 10976 10976 10975 10974 10974 10972 10971 10969 10967 10969 10967 10965 10963 10959 10957 10955 10953 10949 10945 10940 10935 10930 10927 10922 10916 10909 10903 10895 10887
10922 10930 10929 10933 10936 10940 10944 10950 10950 10953 10957 10961 10964 10967 10968 10970 10970 10969 10970 10969 10968 10963 10960 10959 10959 10959 10957 10956 10954 10950 10947 10944 10940 10936 10930 10925 10919 10914 10909 10904 10898 10891 10884 10878
10905 10909 10915 10918 10921 10928 10934 10936 10941 10945 10947 10950 10951 10957 10961 10962 10963 10962 10959 10962 10964 10958 10954 10951 10948 10947 10945 10942 10942 10944 10940 10935 10928 10925 10919 10912 10908 10904 10900 10895 10888 10881 10875 10869
10887 10895 10899 10900 10916 10918 10922 10927 10930 10929 10936 10940 10943 10947 10950 10952 10952 10953 10952 10953 10956 10955 10946 10945 10940 10936 10933 10931 10931 10930 10929 10927 10922 10916 10910 10903 10897 10894 10889 10885 10878 10871 10863 10857
10873 10878 10878 10896 10898 10902 10905 10911 10917 10919 10926 10928 10931 10936 10940 10942 10942 10944 10944 10941 10939 10945 10943 10937 10933 10930 10926 10924 10922 10921 10918 10915 10911 10907 10901 10892 10886 10881 10877 10873 10866 10860 10852 10845
10852 10866 10865 10874 10883 10892 10894 10901 10906 10907 10909 10915 10915 10924 10923 10930 10933 10935 10934 10932 10930 10930 10932 10930 10925 10923 10919 10916 10912 10909 10906 10903 10900 10897 10893 10884 10878 10870 10863 10858 10853 10848 10840 10832
10829 10849 10852 10864 10876 10877 10876 10883 10891 10893 10897 10893 10901 10907 10914 10917 10921 10923 10920 10923 10920 10918 10918 10917 10914 10915 10914 10907 10901 10899 10897 10894 10888 10885 10878 10871 10865 10856 10850 10845 10841 10834 10825 10817
10815 10834 10840 10850 10854 10858 10866 10869 10873 10880 10885 10880 10880 10892 10903 10903 10904 10909 10911 10912 10907 10905 10907 10906 10900 10902 10901 10896 10889 10886 10886 10882 10878 10872 10866 10858 10850 10844 10838 10831 10826 10819 10811 10803
10802 10819 10825 10832 10838 10841 10852 10859 10861 10865 10865 10868 10869 10879 10882 10886 10888 10892 10897 10900 10890 10889 10890 10891 10889 10888 10884 10880 10878 10877 10873 10868 10866 10860 10853 10843 10834 10828 10821 10816 10811 10803 10794 10786
10787 10804 10808 10818 10823 10826 10834 10845 10845 10845 10851 10852 10860 10866 10857 10868 10869 10876 10880 10881 10877 10874 10875 10874 10872 10874 10874 10872 10864 10862 10857 10856 10854 10847 10839 10830 10823 10812 10806 10800 10795 10785 10776 10770
10780 10789 10796 10800 10808 10809 10818 10827 10827 10829 10832 10834 10840 10844 10851 10854 10855 10861 10864 10863 10860 10858 10858 10858 10855 10861 10862 10857 10852 10850 10844 10842 10842 10835 10823 10815 10808 10798 10790 10786 10779 10769 10760 10753
10764 10771 10777 10782 10794 10802 10802 10805 10807 10806 10810 10819 10827 10835 10839 10840 10838 10840 10845 10845 10845 10840 10836 10836 10837 10836 10838 10841 10840 10837 10830 10830 10827 10821 10810 10797 10786 10777 10775 10770 10762 10752 10744 10737
10745 10752 10761 10763 10772 10785 10795 10788 10786 10791 10793 10806 10810 10817 10821 10823 10823 10824 10822 10818 10825 10824 10821 10820 10817 10819 10820 10818 10816 10815 10815 10816 10810 10804 10792 10783 10771 10765 10760 10753 10743 10735 10726 10722
10723 10728 10738 10750 10759 10767 10772 10770 10774 10776 10776 10786 10790 10792 10801 10802 10803 10806 10809 10809 10809 10809 10806 10804 10800 10795 10801 10800 10795 10795 10795 10793 10794 10784 10776 10762 10755 10753 10748 10732 10717 10720 10714 10707
10701 10709 10716 10732 10738 10745 10756 10756 10759 10761 10763 10764 10771 10775 10780 10784 10780 10781 10785 10785 10791 10796 10789 10784 10784 10784 10778 10778 10777 10776 10774 10771 10771 10763 10757 10752 10743 10740 10735 10710 10699 10699 10692 10687
10692 10697 10704 10719 10729 10736 10742 10743 10748 10751 10749 10750 10753 10756 10756 10763 10762 10763 10766 10765 10767 10768 10766 10771 10772 10771 10767 10764 10758 10756 10757 10755 10753 10748 10741 10738 10733 10730 10714 10699 10688 10680 10671 10667
10681 10681 10694 10704 10709 10715 10719 10719 10728 10737 10735 10735 10740 10741 10740 10742 10744 10748 10748 10748 10748 10747 10755 10753 10753 10754 10751 10752 10749 10746 10744 10744 10738 10732 10727 10718 10726 10726 10721 10700 10686 10672 10661 10649
10659 10668 10683 10688 10693 10698 10701 10704 10708 10714 10720 10724 10724 10725 10723 10724 10726 10730 10732 10729 10730 10729 10726 10726 10729 10735 10736 10735 10733 10730 10730 10726 10720 10715 10708 10701 10702 10700 10700 10686 10670 10661 10649 10638
10649 10661 10669 10673 10675 10683 10686 10688 10691 10696 10697 10701 10702 10701 10702 10710 10711 10712 10713 10711 10715 10714 10712 10713 10716 10719 10716 10716 10716 10714 10711 10708 10701 10693 10686 10680 10676 10676 10669 10662 10652 10641 10633 10627